IU2RPR-3 Weather Reports


Display with metric or nautical units.
time (UTC)temp
F
wind
direction
speed
MPH
gust
MPH
rain 1hr
in
rain 24hr
in
rain mn
in
humidity
%
barometer
mb
20260507181557 76 0.0 0.0 0.00 0.00 0.00 43 1014.4
20260507174553 88 0.0 0.0 0.00 0.00 0.00 33 1013.7
20260507171549 87 0.0 0.0 0.00 0.00 0.00 34 1013.5
20260507164544 87 0.0 0.0 0.00 0.00 0.00 34 1013.3
20260507161540 84 0.0 0.0 0.00 0.00 0.00 35 1013.4
20260507154536 82 0.0 0.0 0.00 0.00 0.00 38 1013.5
20260507151531 74 0.0 0.0 0.00 0.00 0.00 44 1013.8
20260507144527 76 0.0 0.0 0.00 0.00 0.00 45 1013.8
20260507141523 75 0.0 0.0 0.00 0.00 0.00 43 1013.9
20260507134519 71 0.0 0.0 0.00 0.00 0.00 49 1014.3
20260507131514 71 0.0 0.0 0.00 0.00 0.00 49 1014.6
20260507124510 71 0.0 0.0 0.00 0.00 0.00 48 1014.8
20260507121506 71 0.0 0.0 0.00 0.00 0.00 54 1014.9
20260507114502 68 0.0 0.0 0.00 0.00 0.00 56 1015.2
20260507111457 68 0.0 0.0 0.00 0.00 0.00 58 1015.4
20260507104453 66 0.0 0.0 0.00 0.00 0.00 61 1015.8
20260507101449 64 0.0 0.0 0.00 0.00 0.00 62 1016.1
20260507094444 64 0.0 0.0 0.00 0.00 0.00 67 1016.1
20260507091440 63 0.0 0.0 0.00 0.00 0.00 64 1016.2
20260507084436 61 0.0 0.0 0.00 0.00 0.00 67 1016.3
20260507081432 61 0.0 0.0 0.00 0.00 0.00 66 1016.1
20260507074427 60 0.0 0.0 0.00 0.00 0.00 74 1015.8
20260507071423 59 0.0 0.0 0.00 0.00 0.00 77 1015.8
20260507064419 58 0.0 0.0 0.00 0.00 0.00 79 1015.6
20260507061414 57 0.0 0.0 0.00 0.00 0.00 80 1015.3
20260507054410 56 0.0 0.0 0.00 0.00 0.00 83 1015.4
20260507051406 55 0.0 0.0 0.00 0.00 0.00 83 1015.1
20260507044401 55 0.0 0.0 0.00 0.00 0.00 79 1014.6
20260507041357 54 0.0 0.0 0.00 0.00 0.00 80 1014.4
20260507034353 54 0.0 0.0 0.00 0.00 0.00 84 1014.4
20260507031349 53 0.0 0.0 0.00 0.00 0.00 87 1014.5
20260507024344 53 0.0 0.0 0.00 0.00 0.00 91 1014.5
20260507021340 53 0.0 0.0 0.00 0.00 0.00 91 1014.5
20260507014336 53 0.0 0.0 0.00 0.00 0.00 88 1014.2
20260507011331 54 0.0 0.0 0.00 0.00 0.00 86 1014.1
20260507004327 54 0.0 0.0 0.00 0.00 0.00 88 1014.0
20260507001323 54 0.0 0.0 0.00 0.00 0.00 86 1014.1
20260506234319 54 0.0 0.0 0.00 0.00 0.00 87 1014.0
20260506231314 54 0.0 0.0 0.00 0.00 0.00 87 1013.9
20260506224310 54 0.0 0.0 0.00 0.00 0.00 85 1013.8
20260506221306 54 0.0 0.0 0.00 0.00 0.00 87 1013.8
20260506214301 54 0.0 0.0 0.00 0.00 0.00 86 1013.6
20260506211257 54 0.0 0.0 0.00 0.00 0.00 81 1013.8
20260506204253 54 0.0 0.0 0.00 0.00 0.00 79 1013.6
20260506201249 55 0.0 0.0 0.00 0.00 0.00 78 1013.5
20260506194244 55 0.0 0.0 0.00 0.00 0.00 80 1013.3
20260506191240 55 0.0 0.0 0.00 0.00 0.00 89 1012.7
20260506184236 55 0.0 0.0 0.00 0.00 0.00 88 1012.3